Temperature
10 11 11 11 12 11 11 12 12 14 14 16 17 14 15 17 17 17 17 18 17 17 17 16 15 14 12 10 8 6 4 3 2 2 1 -0 -1 -1 -2 -2 -3 -4 -4 -4
10 11 10 10 11 12 12 12 12 13 14 16 16 15 14 15 16 16 17 17 17 17 16 16 15 14 13 11 9 7 5 4 3 2 1 -0 -1 -2 -2 -2 -3 -4 -4 -4
8 10 10 10 12 13 11 10 11 12 14 14 13 12 13 15 16 16 17 17 17 17 16 16 15 14 13 12 10 7 5 4 2 1 1 -0 -1 -2 -2 -2 -3 -3 -4 -4
7 10 10 13 13 12 12 12 11 12 13 13 12 14 15 16 16 17 17 17 17 16 16 15 15 14 13 11 9 7 6 4 3 2 1 -0 -1 -1 -2 -3 -3 -3 -4 -4
6 7 9 10 12 12 11 12 12 12 13 13 13 12 15 18 18 17 17 17 16 15 15 14 14 13 12 11 9 8 6 4 3 2 1 -0 -1 -1 -2 -3 -3 -3 -4 -4
6 6 8 12 13 13 13 12 14 12 12 12 11 11 14 18 17 17 16 16 15 15 14 14 14 12 11 11 9 8 7 5 4 2 1 -0 -1 -1 -2 -3 -3 -3 -4 -4
6 6 8 10 12 13 13 14 15 15 14 13 11 13 16 16 16 16 15 15 14 14 14 14 13 12 11 10 9 9 7 5 3 2 1 -0 -1 -2 -2 -3 -3 -3 -4 -4
5 5 8 10 10 11 13 15 15 15 15 15 14 15 15 15 15 15 14 14 13 13 13 13 12 11 10 10 9 8 6 4 3 2 0 -0 -1 -2 -2 -2 -3 -3 -4 -4
7 10 12 12 12 14 14 14 15 14 14 14 14 14 14 14 14 13 13 13 13 12 12 12 12 11 10 10 8 6 5 4 3 1 0 -1 -1 -2 -2 -2 -3 -3 -4 -4
7 7 10 12 13 14 14 13 13 13 13 13 13 13 13 13 12 12 12 12 12 12 11 12 11 11 10 8 7 5 4 3 2 1 0 -1 -1 -2 -2 -2 -2 -3 -4 -4
8 8 10 12 13 13 13 12 12 12 12 12 11 11 11 11 11 11 11 11 11 11 11 11 10 10 9 8 6 5 3 2 2 1 0 -1 -1 -1 -2 -2 -2 -3 -4 -4
9 10 10 11 11 11 11 11 10 10 10 10 10 10 10 10 10 9 10 10 10 10 10 10 10 9 8 7 6 4 2 1 1 0 -0 -1 -1 -2 -2 -3 -3 -3 -4 -4
10 10 10 10 10 10 10 9 9 9 9 9 9 9 8 8 9 9 9 9 9 9 9 9 9 8 8 6 5 3 2 1 0 0 -0 -1 -1 -1 -2 -3 -3 -4 -4 -5
9 9 9 9 8 8 8 8 8 8 8 7 7 8 7 7 8 8 8 8 8 8 9 9 8 8 6 5 4 3 1 -0 -1 -1 -0 -0 -1 -1 -2 -3 -3 -3 -4 -5
8 8 7 7 7 7 7 7 7 7 7 7 7 7 6 6 6 6 7 7 7 8 8 8 7 7 5 4 3 1 0 -1 -2 -2 -1 -1 -1 -1 -2 -3 -3 -4 -4 -5
6 6 6 6 6 5 5 5 5 5 5 5 5 5 5 5 5 6 6 6 6 6 7 7 7 6 5 3 2 0 -1 -2 -3 -3 -3 -2 -2 -2 -2 -3 -3 -4 -4 -5
6 5 5 5 4 4 4 4 4 4 4 4 4 4 4 4 4 5 5 5 5 5 6 6 6 5 4 3 1 -0 -1 -3 -4 -5 -4 -3 -2 -2 -2 -3 -3 -4 -4 -5
5 5 4 4 4 4 4 4 4 3 3 3 3 3 3 2 2 3 3 3 4 4 5 5 5 4 4 3 1 -1 -2 -3 -4 -5 -5 -4 -3 -2 -2 -3 -3 -4 -4 -5
5 4 4 4 4 3 3 3 3 3 3 2 2 2 2 2 2 2 2 2 2 3 4 4 3 3 3 2 -0 -2 -3 -4 -5 -5 -5 -5 -4 -3 -2 -3 -3 -4 -4 -5
4 4 4 3 3 3 3 3 3 3 2 2 1 1 1 1 1 1 1 1 2 2 2 2 2 2 2 1 -1 -2 -4 -4 -5 -6 -6 -6 -4 -3 -2 -3 -3 -4 -4 -5
4 3 3 3 3 3 3 3 2 2 2 1 1 0 0 0 0 0 -0 -0 1 1 1 1 1 1 1 0 -2 -3 -4 -5 -6 -6 -6 -6 -5 -4 -3 -3 -4 -4 -4 -5
3 3 3 3 3 3 2 2 2 1 1 1 0 0 -0 -0 -0 -0 -0 -0 0 0 0 1 1 1 0 -1 -2 -4 -5 -6 -6 -7 -7 -6 -5 -4 -3 -3 -3 -4 -4 -4
2 2 2 2 2 2 2 2 1 1 0 -0 -0 -0 -1 -1 -1 -1 -1 -0 -0 -0 -0 0 -0 -0 -1 -2 -3 -4 -5 -6 -7 -7 -7 -6 -6 -4 -3 -3 -3 -4 -4 -4
1 1 1 1 1 1 1 1 0 -0 -0 -1 -1 -1 -1 -1 -1 -1 -1 -1 -1 -1 -1 -1 -1 -1 -2 -3 -4 -5 -6 -7 -7 -8 -7 -7 -6 -5 -4 -3 -3 -4 -4 -4
1 0 0 0 -0 -0 -0 -1 -1 -1 -1 -1 -1 -1 -1 -1 -1 -1 -1 -1 -1 -1 -1 -1 -1 -2 -2 -3 -4 -5 -6 -7 -7 -8 -8 -7 -6 -5 -4 -3 -3 -4 -4 -4
-0 -1 -1 -1 -1 -1 -1 -2 -2 -2 -2 -3 -2 -2 -1 -1 -1 -1 -1 -1 -1 -1 -1 -1 -2 -2 -2 -3 -4 -5 -6 -7 -8 -8 -8 -7 -6 -5 -4 -4 -4 -4 -4 -4
-1 -1 -1 -1 -1 -2 -2 -3 -3 -3 -3 -3 -3 -2 -2 -1 -1 -1 -1 -1 -1 -1 -1 -2 -2 -2 -3 -4 -5 -6 -6 -7 -7 -8 -8 -7 -6 -5 -4 -4 -4 -4 -4 -4
Wind_Speed
11 11 7 9 13 11 14 15 16 20 23 30 25 13 10 11 11 11 12 11 12 13 13 12 13 15 16 16 16 16 15 15 15 13 11 9 9 8 8 7 8 7 8 9
7 10 11 11 17 21 19 16 20 26 28 29 21 10 10 12 11 12 13 12 12 12 12 14 16 17 16 17 17 16 17 16 13 11 11 10 10 9 8 8 8 7 8 9
7 6 7 10 15 18 11 11 11 19 22 20 15 14 12 11 11 12 13 13 13 13 14 15 16 17 19 18 16 17 17 15 14 13 12 12 11 9 9 8 8 8 8 9
5 2 12 11 6 9 11 14 15 17 20 16 13 9 9 10 12 13 13 13 12 11 12 12 13 14 14 14 16 17 16 15 14 14 13 11 10 10 9 7 7 7 8 9
4 6 12 10 9 7 8 11 12 18 21 17 7 6 10 10 9 12 12 12 11 10 10 9 11 12 13 15 16 17 18 17 16 15 14 12 12 12 9 7 8 7 7 8
5 6 10 9 5 2 1 10 9 8 12 8 3 3 7 8 6 8 10 10 10 9 7 9 9 11 14 16 17 20 20 17 16 15 14 14 13 11 8 8 8 7 7 7
9 10 12 10 4 4 5 9 5 3 4 3 6 8 9 10 10 11 12 12 11 9 9 10 8 12 15 17 21 19 14 14 14 15 15 13 11 10 8 8 7 7 7 7
7 8 13 7 7 9 9 6 7 8 7 7 9 12 13 13 13 13 13 13 11 10 12 9 9 13 16 20 17 12 13 15 15 15 13 12 11 10 9 8 7 7 6 6
12 12 7 5 10 8 6 9 10 9 11 11 11 13 14 13 13 13 13 13 10 11 12 9 11 15 19 17 12 14 15 16 15 15 13 12 12 11 8 8 7 6 5 6
9 12 12 11 10 12 13 13 13 13 14 13 14 16 16 15 13 12 12 12 10 10 11 13 11 16 18 11 13 15 16 16 14 14 14 13 11 10 9 8 8 7 6 6
18 14 13 12 11 11 12 13 14 15 14 13 13 15 14 13 13 12 11 10 9 10 12 15 11 14 14 11 14 16 15 14 14 14 13 13 12 11 11 9 9 8 7 6
27 18 17 17 14 16 17 16 16 16 14 13 11 12 12 11 11 11 12 11 11 11 13 14 11 12 12 13 15 16 14 14 12 12 11 11 10 9 14 13 14 16 13 10
27 22 22 19 14 12 13 14 13 12 11 11 9 9 10 10 9 10 12 13 13 13 14 13 11 11 10 13 15 17 16 15 13 13 13 12 11 11 9 11 14 14 14 13
17 16 17 15 14 12 10 10 8 8 8 8 8 9 9 9 11 12 13 13 13 14 14 12 11 12 10 13 16 17 15 17 15 12 13 12 12 11 10 9 8 6 8 11
14 12 12 10 7 6 6 6 7 9 10 10 9 10 10 11 13 14 15 13 13 13 13 11 12 12 8 12 16 16 14 11 12 11 11 11 11 11 10 10 8 6 4 5
8 5 4 4 5 6 7 7 8 9 10 11 11 12 13 13 13 14 14 12 12 15 15 13 13 11 8 12 14 13 13 20 16 11 11 11 11 11 10 10 9 8 7 6
1 2 3 4 5 6 6 7 8 9 11 12 14 14 14 14 14 15 15 12 12 14 14 13 14 10 8 12 14 11 11 15 22 14 11 12 12 12 11 10 9 9 7 8
7 5 3 1 2 6 8 9 10 11 12 13 14 13 14 15 16 16 16 14 15 16 14 11 10 8 8 10 11 10 11 11 11 11 12 11 12 11 11 11 10 9 6 7
4 3 2 4 6 7 8 10 11 11 12 13 13 14 15 15 15 15 14 13 14 16 13 10 14 9 7 11 13 9 11 12 11 11 11 15 14 11 11 11 10 9 8 8
2 4 5 7 8 8 10 11 11 12 12 12 13 14 15 15 14 14 13 13 13 12 11 13 11 8 7 9 14 9 12 13 13 12 12 12 12 12 11 11 10 10 9 8
6 7 8 9 10 11 11 12 12 14 14 13 14 15 16 16 15 13 13 14 13 12 10 14 9 7 6 8 14 9 12 12 13 13 13 13 13 12 12 11 11 10 10 9
7 8 10 11 12 13 12 11 12 14 14 14 14 14 15 16 15 13 12 12 13 16 11 8 7 9 9 11 9 11 12 13 12 12 12 12 12 12 12 12 11 10 10 9
9 10 11 12 14 15 15 13 13 13 14 15 15 16 16 15 13 13 15 11 10 16 12 9 12 16 15 9 8 11 13 13 13 12 13 12 12 12 12 13 11 10 10 9
11 12 12 12 12 13 15 15 13 12 13 14 14 14 15 14 13 11 12 17 20 21 12 14 19 19 15 7 9 11 12 13 12 12 12 11 11 10 10 11 11 10 10 10
12 12 12 12 13 12 14 14 14 14 13 12 13 13 12 11 13 14 13 14 19 20 12 15 19 18 11 7 10 11 12 12 12 12 12 12 11 11 10 10 11 10 10 10
11 11 11 12 12 12 12 12 12 13 13 14 13 12 11 11 12 13 12 13 15 18 14 10 10 11 8 8 10 12 12 13 15 13 12 12 11 11 10 11 12 10 10 10
11 10 10 10 10 10 10 11 12 13 13 14 16 14 13 13 12 13 13 12 12 11 10 9 8 7 7 7 9 11 12 12 12 12 12 11 11 10 10 11 10 10 10 10
Wind_Direction
254 264 249 243 250 232 220 226 240 256 257 266 272 271 257 260 268 271 265 254 240 233 228 218 213 210 207 204 198 194 194 199 206 203 199 200 205 212 218 228 243 249 260 267
271 261 251 254 256 251 244 238 243 258 266 266 276 279 267 266 266 267 264 258 250 240 231 223 217 213 208 205 199 193 197 203 201 192 194 201 207 212 221 232 243 252 259 266
265 281 308 264 239 240 230 217 218 247 258 271 277 271 264 264 261 257 261 263 258 247 235 229 220 212 209 205 194 195 200 200 195 193 198 204 208 212 223 232 242 252 259 263
261 300 245 248 234 226 239 249 230 246 260 267 263 277 269 257 257 266 266 266 265 256 244 234 220 210 206 195 193 198 200 198 195 193 198 199 205 217 225 229 238 250 259 264
215 246 269 287 272 221 222 271 242 244 262 271 295 317 293 269 241 246 260 266 268 263 253 238 217 202 192 195 196 200 203 200 196 192 194 197 209 219 223 225 237 245 253 260
205 228 253 256 258 170 140 286 280 247 263 286 85 318 282 294 302 282 280 278 277 277 260 240 218 188 192 200 201 208 206 201 193 190 193 200 209 215 216 221 235 244 253 254
223 237 261 261 248 145 220 257 308 331 287 277 213 236 263 296 297 289 287 284 281 272 257 245 206 187 203 208 213 212 198 190 188 191 195 199 202 207 211 220 230 239 253 259
197 222 256 237 160 198 234 301 317 317 310 290 267 270 279 284 285 287 289 287 281 270 264 247 199 197 212 220 217 192 184 187 189 190 191 194 196 204 208 214 226 240 249 261
207 229 261 200 216 252 293 292 293 297 298 296 287 284 286 285 285 286 283 282 276 263 266 253 211 206 222 225 196 182 185 190 189 187 190 189 192 198 203 208 220 234 238 254
253 257 268 274 263 265 265 266 277 284 289 292 286 286 289 289 287 287 285 282 279 271 267 264 230 219 228 215 183 185 191 192 188 187 189 191 192 196 200 206 213 222 230 241
268 273 282 264 265 280 295 298 296 296 294 290 287 288 286 289 289 288 288 287 283 272 268 269 251 231 224 200 184 190 193 192 190 191 189 191 196 200 201 206 205 209 217 222
269 272 273 280 282 288 291 293 298 301 301 298 289 286 292 294 293 294 295 295 293 284 277 276 263 242 219 198 191 191 193 193 191 190 189 190 192 201 216 213 223 229 225 220
263 270 273 281 284 284 287 294 299 300 300 303 303 300 302 300 299 300 300 300 296 292 286 282 271 251 219 197 194 197 197 192 190 188 188 188 189 190 196 214 224 229 232 237
261 270 276 282 290 299 304 309 313 318 318 313 308 309 309 304 304 305 302 299 297 296 293 286 275 258 222 197 197 201 198 196 191 190 188 188 189 189 187 188 197 214 225 232
266 267 275 291 311 327 333 341 344 336 328 323 314 311 310 308 304 301 299 299 299 297 295 290 279 265 221 197 199 201 198 197 192 187 186 186 185 183 183 186 191 189 185 219
283 306 331 356 2 360 358 355 342 326 318 312 310 307 303 297 294 294 295 296 300 301 300 295 283 269 223 200 200 200 200 200 191 185 184 183 183 182 182 185 189 191 197 199
239 29 36 29 11 353 337 321 309 305 304 302 299 298 300 301 301 301 303 302 296 292 290 286 283 272 226 203 198 198 194 199 197 189 187 186 186 186 183 183 189 195 198 196
113 121 123 133 300 304 304 299 295 295 294 291 292 296 298 299 299 298 299 302 304 302 296 283 277 269 232 206 198 194 190 193 191 185 186 189 189 187 183 183 189 190 187 199
125 147 219 257 268 274 279 286 290 289 289 291 294 295 293 291 290 290 293 298 301 301 299 298 302 287 240 214 201 191 187 189 190 186 185 192 191 186 184 183 186 188 184 186
237 255 267 276 279 281 288 291 292 293 294 293 294 295 295 294 293 294 295 292 286 280 282 293 296 277 245 222 207 191 189 191 191 188 186 190 189 188 187 184 184 185 185 186
278 284 290 293 295 294 292 293 296 298 298 295 293 293 294 295 294 293 294 297 293 287 288 295 292 267 240 224 210 193 192 193 193 190 189 191 190 188 187 183 183 187 187 186
282 288 292 295 298 300 299 296 294 293 295 295 293 292 294 297 297 293 282 281 286 292 296 286 278 268 256 232 205 194 194 195 194 191 190 191 190 188 188 184 184 187 184 180
285 288 291 294 295 297 300 298 293 291 292 294 295 295 294 293 294 295 298 292 289 293 295 279 279 278 267 235 203 197 196 195 194 193 191 192 192 190 187 184 184 183 178 176
284 286 287 289 292 296 299 299 295 292 289 289 286 284 286 293 292 282 279 289 295 296 292 284 286 282 270 228 201 197 196 196 194 192 191 191 190 187 186 183 181 179 176 172
279 282 286 291 295 296 295 297 299 298 295 294 290 286 282 279 283 290 289 288 291 295 290 287 287 282 267 226 203 197 194 194 193 191 191 190 188 186 185 182 180 177 174 174
278 282 282 280 282 287 291 294 296 298 299 300 299 295 291 288 284 286 288 286 283 289 288 282 278 273 254 227 207 194 189 192 197 195 190 187 185 184 183 182 177 176 173 170
276 278 281 284 283 280 282 287 291 294 294 296 298 298 295 294 293 291 290 290 289 285 281 278 271 260 244 225 204 190 185 186 188 186 183 182 182 183 183 178 177 172 167 165
Height
1541 1536 1536 1534 1531 1530 1530 1523 1520 1501 1493 1475 1466 1468 1467 1466 1464 1461 1459 1457 1455 1454 1452 1450 1448 1446 1445 1445 1445 1447 1448 1449 1451 1454 1457 1458 1458 1458 1458 1457 1455 1452 1449 1446
1539 1531 1530 1529 1521 1516 1513 1510 1504 1493 1481 1464 1462 1464 1462 1460 1458 1455 1453 1451 1449 1448 1446 1443 1441 1439 1437 1436 1436 1437 1438 1440 1443 1446 1449 1450 1451 1452 1451 1450 1449 1446 1443 1439
1541 1531 1526 1523 1506 1499 1499 1495 1493 1487 1470 1459 1460 1458 1457 1454 1452 1450 1448 1446 1444 1442 1440 1437 1434 1432 1430 1428 1428 1428 1429 1431 1435 1438 1440 1442 1444 1444 1444 1444 1443 1440 1437 1434
1542 1531 1530 1498 1487 1487 1487 1480 1479 1472 1462 1457 1455 1454 1452 1450 1448 1446 1444 1443 1440 1438 1434 1431 1428 1425 1423 1421 1419 1419 1420 1422 1426 1429 1432 1434 1436 1437 1438 1437 1436 1434 1432 1428
1540 1535 1514 1497 1485 1482 1483 1476 1466 1463 1456 1452 1453 1453 1447 1445 1444 1443 1442 1440 1437 1433 1429 1425 1421 1418 1415 1412 1410 1410 1410 1413 1416 1420 1423 1426 1428 1430 1431 1431 1430 1428 1426 1422
1536 1534 1518 1489 1479 1476 1478 1477 1458 1456 1454 1452 1454 1457 1448 1444 1443 1441 1438 1435 1431 1426 1422 1418 1414 1410 1406 1403 1401 1399 1400 1403 1408 1412 1416 1419 1421 1424 1425 1425 1424 1423 1420 1417
1528 1524 1501 1483 1477 1478 1483 1470 1457 1454 1453 1452 1453 1450 1445 1442 1439 1436 1432 1428 1424 1419 1414 1410 1407 1402 1398 1394 1391 1392 1394 1396 1400 1403 1407 1411 1414 1417 1418 1418 1418 1416 1414 1412
1522 1521 1501 1474 1476 1476 1466 1458 1456 1453 1451 1450 1447 1443 1440 1436 1432 1428 1424 1420 1416 1411 1406 1402 1398 1393 1388 1384 1384 1385 1385 1388 1391 1395 1400 1403 1406 1409 1410 1411 1411 1410 1409 1406
1496 1485 1473 1470 1468 1465 1463 1459 1455 1452 1449 1447 1442 1437 1433 1428 1424 1420 1417 1412 1408 1402 1397 1393 1389 1384 1379 1376 1376 1375 1376 1378 1382 1386 1391 1394 1398 1401 1403 1404 1404 1404 1403 1401
1484 1473 1468 1465 1463 1461 1459 1455 1451 1449 1445 1442 1436 1431 1426 1421 1416 1412 1408 1404 1399 1394 1388 1384 1380 1375 1371 1369 1367 1367 1367 1369 1372 1376 1380 1385 1389 1392 1395 1397 1398 1398 1397 1396
1472 1466 1463 1458 1458 1455 1452 1450 1446 1442 1439 1434 1429 1424 1419 1414 1409 1405 1400 1396 1391 1386 1380 1375 1371 1366 1362 1360 1358 1357 1358 1361 1364 1367 1372 1376 1380 1384 1387 1390 1392 1392 1391 1390
1458 1458 1456 1450 1451 1450 1445 1442 1438 1435 1430 1427 1423 1417 1412 1407 1402 1398 1393 1388 1383 1377 1372 1366 1362 1357 1354 1351 1349 1348 1349 1351 1355 1359 1364 1368 1373 1377 1380 1384 1385 1385 1385 1385
1450 1449 1446 1442 1442 1440 1437 1434 1431 1427 1423 1419 1415 1411 1406 1400 1396 1391 1386 1381 1375 1369 1364 1358 1353 1348 1345 1342 1340 1339 1340 1342 1345 1349 1354 1359 1364 1368 1373 1376 1378 1379 1380 1379
1444 1442 1437 1436 1434 1433 1430 1427 1424 1421 1417 1414 1409 1404 1399 1394 1389 1384 1379 1374 1368 1362 1356 1351 1345 1340 1337 1333 1331 1330 1331 1333 1336 1339 1344 1350 1355 1360 1365 1368 1371 1372 1374 1374
1435 1434 1432 1430 1428 1426 1424 1421 1418 1415 1411 1407 1403 1399 1393 1387 1382 1377 1372 1367 1361 1355 1349 1344 1338 1333 1329 1325 1323 1322 1323 1325 1327 1331 1336 1342 1347 1352 1357 1361 1364 1366 1368 1369
1428 1427 1426 1425 1424 1422 1420 1417 1414 1410 1406 1402 1397 1392 1387 1381 1376 1370 1365 1360 1354 1348 1342 1337 1331 1326 1321 1317 1315 1314 1315 1317 1321 1324 1329 1334 1339 1345 1350 1354 1357 1359 1361 1363
1423 1423 1423 1422 1421 1419 1417 1415 1411 1407 1402 1396 1391 1385 1379 1373 1367 1362 1357 1353 1347 1341 1336 1331 1325 1319 1314 1310 1308 1307 1307 1310 1313 1316 1320 1326 1332 1337 1342 1347 1350 1353 1356 1358
1422 1422 1422 1421 1419 1416 1413 1409 1405 1400 1395 1389 1383 1377 1372 1366 1359 1353 1348 1343 1338 1333 1329 1324 1318 1312 1308 1303 1301 1300 1300 1303 1306 1308 1313 1318 1324 1330 1335 1340 1344 1347 1350 1352
1421 1421 1419 1417 1414 1411 1407 1402 1398 1393 1387 1381 1375 1369 1363 1358 1352 1346 1341 1335 1330 1324 1320 1317 1311 1306 1301 1297 1295 1293 1294 1296 1300 1303 1307 1312 1318 1323 1329 1333 1338 1341 1345 1347
1419 1417 1414 1411 1408 1405 1400 1395 1390 1384 1379 1373 1367 1360 1354 1349 1344 1338 1332 1327 1323 1318 1313 1309 1304 1299 1295 1291 1288 1287 1288 1290 1293 1296 1300 1305 1310 1316 1322 1327 1331 1335 1339 1342
1414 1411 1408 1405 1401 1397 1393 1387 1381 1375 1370 1365 1359 1352 1346 1340 1336 1330 1324 1318 1314 1311 1306 1301 1297 1292 1288 1284 1282 1280 1281 1283 1286 1290 1294 1298 1304 1310 1316 1321 1325 1329 1333 1336
1409 1406 1402 1398 1393 1387 1383 1378 1373 1367 1361 1355 1350 1344 1338 1332 1327 1322 1317 1312 1306 1303 1298 1294 1289 1285 1281 1277 1275 1274 1275 1277 1280 1284 1288 1292 1298 1303 1309 1315 1320 1324 1328 1332
1403 1399 1395 1390 1384 1378 1373 1369 1364 1358 1352 1347 1342 1337 1331 1325 1321 1315 1307 1303 1300 1295 1290 1286 1282 1278 1274 1271 1268 1267 1268 1270 1274 1278 1282 1287 1292 1298 1304 1310 1315 1319 1323 1327
1395 1391 1386 1381 1376 1369 1363 1358 1354 1349 1344 1339 1334 1329 1324 1317 1311 1308 1302 1296 1292 1287 1282 1278 1274 1270 1266 1263 1261 1261 1262 1264 1268 1272 1277 1282 1287 1293 1299 1305 1310 1314 1319 1323
1386 1381 1376 1372 1366 1360 1355 1349 1344 1339 1334 1329 1325 1321 1316 1311 1305 1298 1294 1288 1284 1279 1274 1270 1266 1262 1258 1255 1254 1253 1255 1258 1262 1266 1271 1276 1281 1287 1294 1300 1306 1310 1315 1319
1376 1371 1367 1363 1358 1353 1348 1342 1336 1331 1326 1320 1315 1311 1307 1302 1297 1291 1285 1280 1275 1271 1266 1261 1257 1253 1250 1248 1246 1246 1248 1252 1257 1261 1266 1271 1277 1283 1290 1296 1302 1306 1311 1315
1365 1361 1357 1352 1348 1344 1340 1335 1329 1324 1319 1313 1307 1302 1298 1293 1288 1283 1278 1272 1267 1262 1258 1253 1249 1245 1242 1240 1239 1240 1242 1246 1251 1256 1261 1266 1272 1279 1286 1292 1298 1303 1308 1312